FDX10 KMEM-LFPG

Flight info

Callsign FDX10
Flight time 8h 11m
Altitude 31000
Route GOETZ7 DIYAB DCT HITMN Q34 RBV Q430 ACK DCT BRADD N261B NICSO/M084F340 NATS BEXET/N0477F350 DCT MORAG DCT NUCHU L18 MID/N0491F290 Y803 SFD UM605 BIBAX
Aircraft B77L/H-SDE1E2E3FGHIJ2J3J4J5M1RWXY/LB1D1

Departure

Time 2026-05-05 01:53
Airport Memphis International Airport (KMEM)

Arrival

Time 2026-05-05 10:05
Airport Charles de Gaulle International Airport (LFPG)
Time Latitude Longitude Altitude Speed Heading
2026-05-05 01:29 35.06265 -89.97435 335 ft 0 kts 359°
2026-05-05 01:42 35.06242 -89.97433 330 ft 4 kts 349°
2026-05-05 01:43 35.06217 -89.97424 330 ft 4 kts 328°
2026-05-05 01:43 35.06199 -89.97403 330 ft 4 kts 287°
2026-05-05 01:43 35.06197 -89.97392 330 ft 1 kts 270°
2026-05-05 01:47 35.06197 -89.97394 330 ft 2 kts 270°
2026-05-05 01:47 35.06197 -89.97434 330 ft 5 kts 270°
2026-05-05 01:47 35.06197 -89.97480 331 ft 5 kts 270°
2026-05-05 01:48 35.06187 -89.97523 332 ft 5 kts 229°
2026-05-05 01:48 35.06152 -89.97539 330 ft 5 kts 188°
2026-05-05 01:48 35.06114 -89.97542 333 ft 5 kts 181°
2026-05-05 01:48 35.06070 -89.97542 332 ft 7 kts 181°
2026-05-05 01:49 35.06019 -89.97541 332 ft 7 kts 174°
2026-05-05 01:49 35.05969 -89.97529 332 ft 7 kts 166°
2026-05-05 01:49 35.05920 -89.97513 331 ft 7 kts 165°
2026-05-05 01:49 35.05871 -89.97497 333 ft 8 kts 165°
2026-05-05 01:50 35.05800 -89.97485 333 ft 11 kts 180°
2026-05-05 01:50 35.05721 -89.97487 330 ft 11 kts 181°
2026-05-05 01:50 35.05642 -89.97489 332 ft 11 kts 181°
2026-05-05 01:50 35.05563 -89.97487 329 ft 11 kts 177°
2026-05-05 01:51 35.05490 -89.97511 329 ft 11 kts 222°
2026-05-05 01:51 35.05443 -89.97584 325 ft 6 kts 235°
2026-05-05 01:51 35.05409 -89.97615 326 ft 6 kts 194°
2026-05-05 01:51 35.05380 -89.97616 327 ft 0 kts 180°
2026-05-05 01:52 35.05280 -89.97616 326 ft 43 kts 180°
2026-05-05 01:52 35.04744 -89.97609 324 ft 109 kts 179°
2026-05-05 01:52 35.03788 -89.97588 326 ft 164 kts 179°
2026-05-05 01:53 35.02528 -89.97572 509 ft 186 kts 179°
2026-05-05 01:53 35.01220 -89.97533 986 ft 193 kts 179°
2026-05-05 01:53 34.99864 -89.97335 1458 ft 198 kts 169°
2026-05-05 01:53 34.98608 -89.96841 2231 ft 184 kts 166°
2026-05-05 01:54 34.97403 -89.96346 2700 ft 185 kts 167°
2026-05-05 01:54 34.96142 -89.95825 2906 ft 198 kts 162°
2026-05-05 01:54 34.94872 -89.95036 3227 ft 211 kts 152°
2026-05-05 01:54 34.93746 -89.93806 3595 ft 224 kts 134°
2026-05-05 01:55 34.92887 -89.92175 4036 ft 233 kts 119°
2026-05-05 01:55 34.92454 -89.90243 4506 ft 238 kts 102°
2026-05-05 01:55 34.92305 -89.88208 4836 ft 249 kts 99°
2026-05-05 01:55 34.92216 -89.86008 4952 ft 270 kts 94°
2026-05-05 01:56 34.92392 -89.83665 5307 ft 284 kts 81°
2026-05-05 01:56 34.93026 -89.81411 5926 ft 286 kts 62°
2026-05-05 01:56 34.94075 -89.79360 6530 ft 284 kts 57°
2026-05-05 01:56 34.95184 -89.77315 6887 ft 295 kts 56°
2026-05-05 01:57 34.96345 -89.75177 7217 ft 307 kts 58°
2026-05-05 01:57 34.97397 -89.72916 7900 ft 302 kts 59°
2026-05-05 01:57 34.98457 -89.70770 8659 ft 300 kts 56°
2026-05-05 01:57 34.99602 -89.68605 9113 ft 307 kts 56°
2026-05-05 01:58 35.00758 -89.66391 9650 ft 311 kts 57°
2026-05-05 01:58 35.01898 -89.64139 10193 ft 313 kts 57°
2026-05-05 01:58 35.03048 -89.61807 10455 ft 329 kts 58°
2026-05-05 01:58 35.04247 -89.59330 10618 ft 348 kts 58°
2026-05-05 01:59 35.05499 -89.56706 10771 ft 368 kts 58°
2026-05-05 01:59 35.06815 -89.53922 10966 ft 386 kts 58°
2026-05-05 01:59 35.08168 -89.51039 11413 ft 396 kts 58°
2026-05-05 01:59 35.09546 -89.48092 12032 ft 402 kts 58°
2026-05-05 02:00 35.10933 -89.45120 12761 ft 404 kts 58°
2026-05-05 02:00 35.12324 -89.42136 13513 ft 406 kts 58°
2026-05-05 02:00 35.13707 -89.39169 14153 ft 409 kts 58°
2026-05-05 02:00 35.15122 -89.36132 14756 ft 413 kts 58°
2026-05-05 02:01 35.16545 -89.33074 15333 ft 416 kts 58°
2026-05-05 02:01 35.17984 -89.29981 15945 ft 420 kts 57°
2026-05-05 02:01 35.19431 -89.26868 16563 ft 423 kts 57°
2026-05-05 02:01 35.20893 -89.23720 17157 ft 427 kts 57°
2026-05-05 02:02 35.22231 -89.20459 17720 ft 432 kts 66°
2026-05-05 02:02 35.23159 -89.16930 18265 ft 438 kts 72°
2026-05-05 02:02 35.23980 -89.13326 18753 ft 441 kts 72°
2026-05-05 02:02 35.24831 -89.09708 19238 ft 444 kts 69°
2026-05-05 02:03 35.25944 -89.06231 19680 ft 447 kts 63°
2026-05-05 02:03 35.27274 -89.02783 20132 ft 450 kts 60°
2026-05-05 02:03 35.28682 -88.99341 20611 ft 453 kts 60°
2026-05-05 02:03 35.30099 -88.95883 21076 ft 457 kts 60°
2026-05-05 02:04 35.31512 -88.92371 21537 ft 461 kts 61°
2026-05-05 02:04 35.32910 -88.88817 21980 ft 465 kts 61°
2026-05-05 02:04 35.34298 -88.85224 22444 ft 469 kts 62°
2026-05-05 02:04 35.35682 -88.81595 22911 ft 472 kts 62°
2026-05-05 02:05 35.37073 -88.77920 23371 ft 475 kts 62°
2026-05-05 02:05 35.38466 -88.74226 23753 ft 480 kts 62°
2026-05-05 02:05 35.39852 -88.70546 24145 ft 482 kts 62°
2026-05-05 02:05 35.41260 -88.66803 24566 ft 485 kts 62°
2026-05-05 02:06 35.42674 -88.63044 24955 ft 487 kts 62°
2026-05-05 02:06 35.44099 -88.59254 25331 ft 490 kts 62°
2026-05-05 02:06 35.45528 -88.55452 25703 ft 493 kts 61°
2026-05-05 02:06 35.46969 -88.51613 26076 ft 496 kts 61°
2026-05-05 02:07 35.48412 -88.47765 26444 ft 498 kts 61°
2026-05-05 02:07 35.49863 -88.43890 26874 ft 500 kts 62°
2026-05-05 02:07 35.51315 -88.40007 27299 ft 501 kts 62°
2026-05-05 02:07 35.52770 -88.36112 27685 ft 504 kts 61°
2026-05-05 02:08 35.54235 -88.32186 28017 ft 506 kts 61°
2026-05-05 02:08 35.55706 -88.28237 28348 ft 509 kts 61°
2026-05-05 02:08 35.57163 -88.24325 28666 ft 511 kts 61°
2026-05-05 02:08 35.58645 -88.20338 28985 ft 514 kts 61°
2026-05-05 02:09 35.60133 -88.16329 29295 ft 516 kts 61°
2026-05-05 02:09 35.61626 -88.12301 29618 ft 517 kts 61°
2026-05-05 02:09 35.63115 -88.08277 30040 ft 516 kts 61°
2026-05-05 02:09 35.64599 -88.04261 30447 ft 514 kts 61°
2026-05-05 02:10 35.66077 -88.00258 30766 ft 515 kts 60°
2026-05-05 02:10 35.67558 -87.96244 31013 ft 516 kts 60°
2026-05-05 02:10 35.69040 -87.92222 31284 ft 516 kts 60°
2026-05-05 02:10 35.70519 -87.88202 31578 ft 516 kts 60°
2026-05-05 02:11 35.72001 -87.84170 31868 ft 516 kts 59°
2026-05-05 02:11 35.73481 -87.80139 32152 ft 517 kts 59°
2026-05-05 02:11 35.74959 -87.76107 32485 ft 515 kts 59°
2026-05-05 02:11 35.76410 -87.72139 32788 ft 515 kts 59°
2026-05-05 02:12 35.77890 -87.68093 32892 ft 518 kts 60°
2026-05-05 02:12 35.80861 -87.59963 32936 ft 523 kts 60°
2026-05-05 02:13 35.83837 -87.51780 32938 ft 522 kts 60°
2026-05-05 02:13 35.86797 -87.43619 32936 ft 521 kts 60°
2026-05-05 02:14 35.89751 -87.35459 32939 ft 520 kts 60°
2026-05-05 02:14 35.92692 -87.27317 32949 ft 520 kts 61°
2026-05-05 02:15 35.95610 -87.19213 32939 ft 520 kts 61°
2026-05-05 02:15 35.98548 -87.11033 32933 ft 520 kts 61°
2026-05-05 02:16 36.01473 -87.02868 32923 ft 520 kts 61°
2026-05-05 02:16 36.04401 -86.94677 32914 ft 520 kts 61°
2026-05-05 02:17 36.07316 -86.86495 32917 ft 520 kts 62°
2026-05-05 02:17 36.10226 -86.78308 32920 ft 520 kts 62°
2026-05-05 02:18 36.13129 -86.70118 32937 ft 519 kts 62°
2026-05-05 02:18 36.15924 -86.61918 32933 ft 520 kts 64°
2026-05-05 02:19 36.18594 -86.53579 32946 ft 520 kts 65°
2026-05-05 02:19 36.21248 -86.45258 32952 ft 520 kts 65°
2026-05-05 02:20 36.23925 -86.36921 32946 ft 520 kts 65°
2026-05-05 02:20 36.26585 -86.28659 32946 ft 520 kts 65°
2026-05-05 02:21 36.29261 -86.20324 32953 ft 520 kts 65°
2026-05-05 02:21 36.31931 -86.11980 32945 ft 520 kts 65°
2026-05-05 02:22 36.34594 -86.03630 32938 ft 520 kts 65°
2026-05-05 02:22 36.37232 -85.95332 32941 ft 520 kts 65°
2026-05-05 02:23 36.39885 -85.86965 32939 ft 519 kts 65°
2026-05-05 02:23 36.42529 -85.78603 32936 ft 520 kts 65°
2026-05-05 02:24 36.45166 -85.70242 32948 ft 521 kts 65°
2026-05-05 02:24 36.47787 -85.61903 32938 ft 521 kts 65°
2026-05-05 02:25 36.50421 -85.53500 32937 ft 522 kts 65°
2026-05-05 02:25 36.53050 -85.45087 32942 ft 522 kts 65°
2026-05-05 02:26 36.55236 -85.38075 32945 ft 523 kts 65°
2026-05-05 02:26 36.57860 -85.29631 32937 ft 523 kts 65°
2026-05-05 02:27 36.60906 -85.19804 32937 ft 523 kts 66°
2026-05-05 02:27 36.63092 -85.12728 32942 ft 523 kts 66°
2026-05-05 02:28 36.65679 -85.04326 32965 ft 523 kts 65°
2026-05-05 02:28 36.68287 -84.95834 32947 ft 524 kts 66°
2026-05-05 02:29 36.70892 -84.87323 32962 ft 524 kts 66°
2026-05-05 02:29 36.73469 -84.78882 32953 ft 524 kts 66°
2026-05-05 02:30 36.76055 -84.70383 32950 ft 524 kts 66°
2026-05-05 02:30 36.78635 -84.61876 32955 ft 524 kts 66°
2026-05-05 02:31 36.81215 -84.53348 32933 ft 524 kts 66°
2026-05-05 02:31 36.83793 -84.44825 32927 ft 524 kts 66°
2026-05-05 02:32 36.86347 -84.36359 32979 ft 524 kts 66°
2026-05-05 02:32 36.88908 -84.27836 32974 ft 524 kts 66°
2026-05-05 02:33 36.91463 -84.19306 32956 ft 524 kts 67°
2026-05-05 02:33 36.94013 -84.10769 32937 ft 523 kts 67°
2026-05-05 02:34 36.96552 -84.02241 32932 ft 523 kts 67°
2026-05-05 02:34 36.99076 -83.93704 32936 ft 523 kts 67°
2026-05-05 02:35 37.01589 -83.85168 32935 ft 522 kts 67°
2026-05-05 02:35 37.04081 -83.76680 32931 ft 522 kts 67°
2026-05-05 02:36 37.06578 -83.68151 32941 ft 522 kts 67°
2026-05-05 02:36 37.09069 -83.59619 32937 ft 522 kts 68°
2026-05-05 02:37 37.11559 -83.51066 32923 ft 521 kts 68°
2026-05-05 02:37 37.14034 -83.42533 32935 ft 520 kts 68°
2026-05-05 02:38 37.16485 -83.34054 32928 ft 520 kts 68°
2026-05-05 02:38 37.18944 -83.25526 32939 ft 519 kts 68°
2026-05-05 02:39 37.21394 -83.17004 32934 ft 519 kts 68°
2026-05-05 02:39 37.23838 -83.08472 32937 ft 519 kts 68°
2026-05-05 02:40 37.26283 -82.99913 32938 ft 520 kts 68°
2026-05-05 02:40 37.28724 -82.91347 32938 ft 522 kts 68°
2026-05-05 02:41 37.31169 -82.82746 32934 ft 523 kts 68°
2026-05-05 02:41 37.33590 -82.74196 32927 ft 523 kts 68°
2026-05-05 02:42 37.36025 -82.65571 32945 ft 524 kts 68°
2026-05-05 02:42 37.38457 -82.56926 32942 ft 525 kts 68°
2026-05-05 02:43 37.40888 -82.48259 32926 ft 525 kts 68°
2026-05-05 02:43 37.43312 -82.39586 32933 ft 526 kts 69°
2026-05-05 02:44 37.45735 -82.30888 32911 ft 526 kts 69°
2026-05-05 02:44 37.48154 -82.22180 32923 ft 526 kts 68°
2026-05-05 02:45 37.50550 -82.13526 32926 ft 527 kts 69°
2026-05-05 02:45 37.52965 -82.04801 32929 ft 527 kts 69°
2026-05-05 02:46 37.55377 -81.96071 32912 ft 527 kts 69°
2026-05-05 02:46 37.57783 -81.87329 32929 ft 527 kts 69°
2026-05-05 02:47 37.60166 -81.78639 32928 ft 527 kts 69°
2026-05-05 02:47 37.62549 -81.69881 32927 ft 527 kts 69°
2026-05-05 02:48 37.64919 -81.61122 32928 ft 527 kts 69°
2026-05-05 02:48 37.67270 -81.52413 32932 ft 527 kts 69°
2026-05-05 02:49 37.69626 -81.43660 32972 ft 525 kts 69°
2026-05-05 02:49 37.71972 -81.34913 32970 ft 525 kts 69°
2026-05-05 02:50 37.74305 -81.26185 32995 ft 524 kts 69°
2026-05-05 02:50 37.76631 -81.17458 32998 ft 523 kts 69°
2026-05-05 02:51 37.78332 -81.08564 33004 ft 526 kts 81°
2026-05-05 02:51 37.78951 -80.99283 33005 ft 527 kts 85°
2026-05-05 02:52 37.79493 -80.90103 32987 ft 527 kts 84°
2026-05-05 02:52 37.80086 -80.80869 32983 ft 527 kts 84°
2026-05-05 02:53 37.80694 -80.71617 32959 ft 527 kts 84°
2026-05-05 02:53 37.81290 -80.62376 32991 ft 527 kts 84°
2026-05-05 02:54 37.81878 -80.53125 32986 ft 527 kts 84°
2026-05-05 02:54 37.82454 -80.43962 32995 ft 524 kts 84°
2026-05-05 02:55 37.83031 -80.34776 32990 ft 522 kts 84°
2026-05-05 02:55 37.83602 -80.25622 32992 ft 521 kts 84°
2026-05-05 02:56 37.84161 -80.16550 32988 ft 519 kts 84°
2026-05-05 02:56 37.84715 -80.07437 32998 ft 518 kts 85°
2026-05-05 02:57 37.85259 -79.98337 33010 ft 518 kts 85°
2026-05-05 02:57 37.85797 -79.89241 33018 ft 519 kts 85°
2026-05-05 02:58 37.86329 -79.80125 33044 ft 519 kts 85°
2026-05-05 02:58 37.86837 -79.71051 33016 ft 520 kts 86°
2026-05-05 02:59 37.87138 -79.61892 32923 ft 522 kts 88°
2026-05-05 02:59 37.87390 -79.52712 32919 ft 522 kts 88°
2026-05-05 03:00 37.87674 -79.43520 32915 ft 522 kts 88°
2026-05-05 03:00 37.87965 -79.34329 32928 ft 523 kts 87°
2026-05-05 03:01 37.88822 -79.25256 32940 ft 522 kts 81°
2026-05-05 03:01 37.89955 -79.16167 32947 ft 523 kts 80°
2026-05-05 03:02 37.91060 -79.07055 32961 ft 523 kts 81°
2026-05-05 03:02 37.92124 -78.97952 32966 ft 522 kts 81°
2026-05-05 03:03 37.93173 -78.88836 32960 ft 523 kts 81°
2026-05-05 03:03 37.94216 -78.79718 32961 ft 522 kts 81°
2026-05-05 03:04 37.95249 -78.70657 32959 ft 523 kts 81°
2026-05-05 03:04 37.96281 -78.61531 32952 ft 523 kts 81°
2026-05-05 03:05 37.97308 -78.52401 32961 ft 523 kts 81°
2026-05-05 03:05 37.98326 -78.43272 32955 ft 523 kts 81°
2026-05-05 03:06 37.99337 -78.34141 32966 ft 523 kts 81°
2026-05-05 03:06 38.00343 -78.24998 32961 ft 523 kts 81°
2026-05-05 03:07 38.01929 -78.16024 32962 ft 520 kts 68°
2026-05-05 03:07 38.04976 -78.07822 32983 ft 515 kts 55°
2026-05-05 03:08 38.08873 -78.00192 32958 ft 515 kts 54°
2026-05-05 03:08 38.12765 -77.92559 32985 ft 515 kts 54°
2026-05-05 03:09 38.16615 -77.84873 32957 ft 515 kts 55°
2026-05-05 03:09 38.20435 -77.77179 32944 ft 514 kts 55°
2026-05-05 03:10 38.24254 -77.69470 32946 ft 514 kts 55°
2026-05-05 03:10 38.28032 -77.61833 32954 ft 513 kts 55°
2026-05-05 03:11 38.31822 -77.54156 32944 ft 512 kts 56°
2026-05-05 03:11 38.35602 -77.46480 32949 ft 510 kts 56°
2026-05-05 03:12 38.39369 -77.38821 32947 ft 509 kts 55°
2026-05-05 03:12 38.43648 -77.31700 32974 ft 504 kts 45°
2026-05-05 03:13 38.48348 -77.25063 32963 ft 503 kts 45°
2026-05-05 03:13 38.52992 -77.18449 32950 ft 503 kts 46°
2026-05-05 03:14 38.57635 -77.11747 32946 ft 503 kts 46°
2026-05-05 03:14 38.62264 -77.05030 32944 ft 503 kts 46°
2026-05-05 03:15 38.66113 -76.99437 32952 ft 503 kts 46°
2026-05-05 03:15 38.70742 -76.92700 32936 ft 501 kts 46°
2026-05-05 03:16 38.75310 -76.86041 32944 ft 500 kts 46°
2026-05-05 03:16 38.79896 -76.79339 32942 ft 499 kts 46°
2026-05-05 03:17 38.84468 -76.72640 32956 ft 498 kts 47°
2026-05-05 03:17 38.89035 -76.65932 32941 ft 497 kts 47°
2026-05-05 03:18 38.93585 -76.59235 32953 ft 496 kts 47°
2026-05-05 03:18 38.98117 -76.52551 32945 ft 496 kts 47°
2026-05-05 03:19 39.04884 -76.42543 32938 ft 495 kts 47°
2026-05-05 03:19 39.09406 -76.35837 32936 ft 495 kts 47°
2026-05-05 03:20 39.13922 -76.29126 32938 ft 495 kts 47°
2026-05-05 03:20 39.18431 -76.22410 32937 ft 495 kts 47°
2026-05-05 03:21 39.22928 -76.15699 32947 ft 495 kts 47°
2026-05-05 03:21 39.27405 -76.09010 32944 ft 494 kts 47°
2026-05-05 03:22 39.31902 -76.02297 32926 ft 494 kts 47°
2026-05-05 03:22 39.36392 -75.95581 32934 ft 494 kts 47°
2026-05-05 03:23 39.40887 -75.88840 32948 ft 494 kts 47°
2026-05-05 03:23 39.45376 -75.82092 32931 ft 494 kts 47°
2026-05-05 03:24 39.49863 -75.75332 32927 ft 494 kts 47°
2026-05-05 03:24 39.54310 -75.68618 32929 ft 494 kts 47°
2026-05-05 03:25 39.58789 -75.61841 32955 ft 495 kts 47°
2026-05-05 03:25 39.63265 -75.55054 32936 ft 495 kts 47°
2026-05-05 03:26 39.67609 -75.48116 32935 ft 496 kts 52°
2026-05-05 03:26 39.71666 -75.40846 32935 ft 496 kts 52°
2026-05-05 03:27 39.75681 -75.33598 32935 ft 497 kts 52°
2026-05-05 03:27 39.79732 -75.26324 32938 ft 497 kts 52°
2026-05-05 03:28 39.83795 -75.19037 32935 ft 497 kts 52°
2026-05-05 03:28 39.87853 -75.11740 32937 ft 498 kts 52°
2026-05-05 03:29 39.91910 -75.04424 32934 ft 498 kts 52°
2026-05-05 03:29 39.95966 -74.97095 32947 ft 498 kts 52°
2026-05-05 03:30 39.99930 -74.89669 32943 ft 498 kts 54°
2026-05-05 03:30 40.03713 -74.82134 32946 ft 498 kts 55°
2026-05-05 03:31 40.07516 -74.74574 32949 ft 498 kts 54°
2026-05-05 03:31 40.11345 -74.67020 32939 ft 498 kts 54°
2026-05-05 03:32 40.15169 -74.59473 32936 ft 498 kts 54°
2026-05-05 03:32 40.18946 -74.51880 32930 ft 498 kts 58°
2026-05-05 03:33 40.21869 -74.43646 32953 ft 501 kts 70°
2026-05-05 03:33 40.24080 -74.34990 32972 ft 500 kts 70°
2026-05-05 03:34 40.26288 -74.26400 32971 ft 501 kts 70°
2026-05-05 03:34 40.28544 -74.17763 32977 ft 501 kts 69°
2026-05-05 03:35 40.30803 -74.09129 32971 ft 501 kts 69°
2026-05-05 03:35 40.33061 -74.00454 32953 ft 501 kts 69°
2026-05-05 03:36 40.35290 -73.91861 32957 ft 501 kts 69°
2026-05-05 03:36 40.37545 -73.83149 32951 ft 501 kts 69°
2026-05-05 03:37 40.39769 -73.74528 32956 ft 501 kts 70°
2026-05-05 03:37 40.41997 -73.65860 32960 ft 501 kts 69°
2026-05-05 03:38 40.44223 -73.57172 32954 ft 501 kts 69°
2026-05-05 03:38 40.46421 -73.48561 32964 ft 501 kts 69°
2026-05-05 03:39 40.48628 -73.39878 32960 ft 500 kts 69°
2026-05-05 03:39 40.50830 -73.31182 32963 ft 500 kts 69°
2026-05-05 03:40 40.53008 -73.22552 32969 ft 500 kts 69°
2026-05-05 03:40 40.55193 -73.13862 32969 ft 500 kts 69°
2026-05-05 03:41 40.57370 -73.05174 32971 ft 500 kts 69°
2026-05-05 03:41 40.59542 -72.96471 32970 ft 500 kts 69°
2026-05-05 03:42 40.61710 -72.87753 32984 ft 500 kts 69°
2026-05-05 03:42 40.63868 -72.79047 32988 ft 500 kts 69°
2026-05-05 03:43 40.66019 -72.70332 32986 ft 500 kts 69°
2026-05-05 03:43 40.68162 -72.61621 32994 ft 500 kts 69°
2026-05-05 03:44 40.70288 -72.52934 32995 ft 500 kts 69°
2026-05-05 03:44 40.72408 -72.44202 32994 ft 500 kts 69°
2026-05-05 03:45 40.74523 -72.35457 32997 ft 500 kts 69°
2026-05-05 03:45 40.76632 -72.26713 32997 ft 500 kts 69°
2026-05-05 03:46 40.78751 -72.17971 33003 ft 500 kts 68°
2026-05-05 03:46 40.81031 -72.09313 33016 ft 499 kts 67°
2026-05-05 03:47 40.83353 -72.00649 33007 ft 500 kts 67°
2026-05-05 03:47 40.85643 -71.91968 33002 ft 500 kts 68°
2026-05-05 03:48 40.87898 -71.83330 32999 ft 500 kts 68°
2026-05-05 03:48 40.90160 -71.74629 33000 ft 500 kts 68°
2026-05-05 03:49 40.92419 -71.65926 33017 ft 500 kts 68°
2026-05-05 03:49 40.94689 -71.57226 33004 ft 500 kts 67°
2026-05-05 03:50 40.96996 -71.48534 33001 ft 500 kts 67°
2026-05-05 03:50 40.99275 -71.39896 32997 ft 500 kts 67°
2026-05-05 03:51 41.01436 -71.31129 32985 ft 501 kts 70°
2026-05-05 03:51 41.03331 -71.22248 33003 ft 501 kts 71°
2026-05-05 03:52 41.05225 -71.13361 33016 ft 501 kts 70°
2026-05-05 03:52 41.07141 -71.04475 33001 ft 501 kts 71°
2026-05-05 03:53 41.09008 -70.95566 33031 ft 502 kts 71°
2026-05-05 03:53 41.10853 -70.86706 33021 ft 502 kts 71°
2026-05-05 03:54 41.12716 -70.77791 33001 ft 501 kts 71°
2026-05-05 03:54 41.14584 -70.68882 33001 ft 501 kts 71°
2026-05-05 03:55 41.16447 -70.59966 33016 ft 500 kts 71°
2026-05-05 03:55 41.18296 -70.51066 33013 ft 500 kts 71°
2026-05-05 03:56 41.20125 -70.42216 33001 ft 499 kts 71°
2026-05-05 03:56 41.21958 -70.33314 33007 ft 499 kts 71°
2026-05-05 03:57 41.23784 -70.24404 33017 ft 498 kts 71°
2026-05-05 03:57 41.25587 -70.15574 33026 ft 498 kts 71°
2026-05-05 03:58 41.27524 -70.06740 33021 ft 495 kts 64°
2026-05-05 03:58 41.30751 -69.98781 33025 ft 486 kts 51°
2026-05-05 03:59 41.35045 -69.91914 33023 ft 482 kts 44°
2026-05-05 03:59 41.38727 -69.86329 33023 ft 482 kts 45°
2026-05-05 04:00 41.43133 -69.79578 33043 ft 483 kts 45°
2026-05-05 04:00 41.47527 -69.72768 33026 ft 484 kts 45°
2026-05-05 04:01 41.51902 -69.65949 33021 ft 484 kts 45°
2026-05-05 04:01 41.56248 -69.59157 33022 ft 484 kts 45°
2026-05-05 04:02 41.60624 -69.52305 33043 ft 484 kts 45°
2026-05-05 04:02 41.64994 -69.45450 33020 ft 484 kts 45°
2026-05-05 04:03 41.69353 -69.38596 33026 ft 483 kts 45°
2026-05-05 04:03 41.73680 -69.31776 33032 ft 482 kts 45°
2026-05-05 04:04 41.78027 -69.24910 33018 ft 482 kts 45°
2026-05-05 04:04 41.82364 -69.18043 33025 ft 482 kts 45°
2026-05-05 04:05 41.86690 -69.11179 33027 ft 481 kts 45°
2026-05-05 04:05 41.91008 -69.04311 33027 ft 481 kts 45°
2026-05-05 04:06 41.95294 -68.97479 33029 ft 481 kts 45°
2026-05-05 04:06 41.99607 -68.90588 33026 ft 481 kts 45°
2026-05-05 04:07 42.03911 -68.83695 33036 ft 480 kts 45°
2026-05-05 04:07 42.08203 -68.76806 33020 ft 481 kts 45°
2026-05-05 04:08 42.12474 -68.69934 33020 ft 480 kts 45°
2026-05-05 04:08 42.16764 -68.63016 33016 ft 480 kts 45°
2026-05-05 04:09 42.21046 -68.56094 33021 ft 481 kts 45°
2026-05-05 04:09 42.25326 -68.49161 33020 ft 481 kts 45°
2026-05-05 04:10 42.29581 -68.42249 33016 ft 480 kts 45°
2026-05-05 04:10 42.33842 -68.35313 33025 ft 480 kts 45°
2026-05-05 04:11 42.38100 -68.28367 33011 ft 480 kts 45°
2026-05-05 04:11 42.42358 -68.21404 33002 ft 480 kts 45°
2026-05-05 04:12 42.46614 -68.14427 33014 ft 479 kts 45°
2026-05-05 04:12 42.50831 -68.07499 33003 ft 479 kts 45°
2026-05-05 04:13 42.55068 -68.00520 32995 ft 479 kts 45°
2026-05-05 04:13 42.59303 -67.93529 33003 ft 479 kts 45°
2026-05-05 04:14 42.63536 -67.86526 32994 ft 479 kts 45°
2026-05-05 04:14 42.67761 -67.79518 32995 ft 480 kts 45°
2026-05-05 04:15 42.71987 -67.72490 32995 ft 480 kts 45°
2026-05-05 04:15 42.76210 -67.65453 33017 ft 480 kts 45°
2026-05-05 04:16 42.80431 -67.58402 33000 ft 481 kts 45°
2026-05-05 04:16 42.84632 -67.51367 32993 ft 481 kts 45°
2026-05-05 04:17 42.88859 -67.44271 32987 ft 482 kts 45°
2026-05-05 04:17 42.93090 -67.37152 33001 ft 482 kts 45°
2026-05-05 04:18 42.97309 -67.30035 32986 ft 482 kts 45°
2026-05-05 04:18 43.01495 -67.22956 32977 ft 481 kts 45°
2026-05-05 04:19 43.05725 -67.15785 33003 ft 481 kts 45°
2026-05-05 04:19 43.09903 -67.08688 32988 ft 481 kts 45°
2026-05-05 04:20 43.14073 -67.01528 32984 ft 483 kts 47°
2026-05-05 04:20 43.17576 -66.93589 32990 ft 490 kts 56°
2026-05-05 04:21 43.20692 -66.85243 32977 ft 492 kts 56°
2026-05-05 04:21 43.23788 -66.76950 32973 ft 491 kts 56°
2026-05-05 04:22 43.26931 -66.68598 32963 ft 491 kts 56°
2026-05-05 04:22 43.30075 -66.60268 32969 ft 491 kts 56°
2026-05-05 04:23 43.33205 -66.51956 32966 ft 493 kts 56°
2026-05-05 04:23 43.36349 -66.43581 32964 ft 493 kts 56°
2026-05-05 04:24 43.39486 -66.35195 32960 ft 493 kts 56°
2026-05-05 04:25 43.44177 -66.22604 32982 ft 493 kts 56°
2026-05-05 04:25 43.47302 -66.14186 32965 ft 493 kts 56°
2026-05-05 04:26 43.50400 -66.05816 32970 ft 494 kts 56°
2026-05-05 04:26 43.53515 -65.97377 32969 ft 494 kts 56°
2026-05-05 04:27 43.56629 -65.88911 32976 ft 494 kts 56°
2026-05-05 04:27 43.59735 -65.80443 32958 ft 495 kts 56°
2026-05-05 04:28 43.62817 -65.72016 32963 ft 495 kts 56°
2026-05-05 04:28 43.65913 -65.63521 32959 ft 495 kts 56°
2026-05-05 04:29 43.69001 -65.55024 32984 ft 495 kts 55°
2026-05-05 04:29 43.72090 -65.46500 32958 ft 496 kts 55°
2026-05-05 04:30 43.75177 -65.37957 32963 ft 497 kts 56°
2026-05-05 04:30 43.78259 -65.29395 32962 ft 497 kts 56°
2026-05-05 04:31 43.81320 -65.20870 32974 ft 498 kts 55°
2026-05-05 04:31 43.84407 -65.12247 32960 ft 500 kts 56°
2026-05-05 04:32 43.87496 -65.03588 32954 ft 502 kts 56°
2026-05-05 04:32 43.90590 -64.94886 32941 ft 503 kts 56°
2026-05-05 04:33 43.93672 -64.86192 32942 ft 505 kts 56°
2026-05-05 04:33 43.96767 -64.77433 32941 ft 505 kts 56°
2026-05-05 04:34 43.99858 -64.68655 32939 ft 506 kts 56°
2026-05-05 04:34 44.02943 -64.59866 32940 ft 506 kts 56°
2026-05-05 04:35 44.06027 -64.51054 32943 ft 507 kts 57°
2026-05-05 04:35 44.09097 -64.42257 32955 ft 510 kts 57°
2026-05-05 04:36 44.12189 -64.33368 32943 ft 512 kts 57°
2026-05-05 04:36 44.15296 -64.24404 32921 ft 515 kts 58°
2026-05-05 04:37 44.18415 -64.15372 32950 ft 519 kts 58°
2026-05-05 04:37 44.21548 -64.06270 32935 ft 522 kts 58°
2026-05-05 04:38 44.24686 -63.97123 32926 ft 524 kts 58°
2026-05-05 04:38 44.27811 -63.87977 32934 ft 524 kts 58°
2026-05-05 04:39 44.30946 -63.78775 32910 ft 525 kts 58°
2026-05-05 04:39 44.34078 -63.69551 32915 ft 525 kts 59°
2026-05-05 04:40 44.37185 -63.60370 32914 ft 526 kts 59°
2026-05-05 04:40 44.40317 -63.51085 32900 ft 528 kts 59°
2026-05-05 04:41 44.43448 -63.41773 32914 ft 530 kts 59°
2026-05-05 04:41 44.46591 -63.32390 32918 ft 533 kts 59°
2026-05-05 04:42 44.49737 -63.22960 32917 ft 535 kts 59°
2026-05-05 04:42 44.52893 -63.13469 32920 ft 536 kts 59°
2026-05-05 04:43 44.56027 -63.04013 32908 ft 539 kts 60°
2026-05-05 04:43 44.59184 -62.94449 32924 ft 541 kts 60°
2026-05-05 04:44 44.62345 -62.84839 32931 ft 543 kts 60°
2026-05-05 04:44 44.65506 -62.75194 32969 ft 544 kts 61°
2026-05-05 04:45 44.68668 -62.65516 32924 ft 546 kts 61°
2026-05-05 04:45 44.71831 -62.55791 32924 ft 547 kts 61°
2026-05-05 04:46 44.74975 -62.46093 32915 ft 547 kts 61°
2026-05-05 04:46 44.78122 -62.36344 32943 ft 546 kts 61°
2026-05-05 04:47 44.81257 -62.26601 32920 ft 546 kts 61°
2026-05-05 04:47 44.84385 -62.16843 32915 ft 545 kts 62°
2026-05-05 04:48 44.86977 -62.08732 32909 ft 545 kts 62°
2026-05-05 04:48 44.90591 -61.97377 32917 ft 545 kts 62°
2026-05-05 04:49 44.93189 -61.89187 32916 ft 546 kts 62°
2026-05-05 04:49 44.96268 -61.79442 32903 ft 546 kts 62°
2026-05-05 04:50 44.99366 -61.69600 32906 ft 547 kts 62°
2026-05-05 04:50 45.02456 -61.59751 32894 ft 548 kts 62°
2026-05-05 04:51 45.05540 -61.49879 32886 ft 549 kts 63°
2026-05-05 04:51 45.08602 -61.40038 32884 ft 549 kts 63°
2026-05-05 04:52 45.11676 -61.30122 32880 ft 550 kts 63°
2026-05-05 04:52 45.14743 -61.20191 32870 ft 550 kts 63°
2026-05-05 04:53 45.17801 -61.10249 32863 ft 550 kts 63°
2026-05-05 04:53 45.20832 -61.00357 32866 ft 550 kts 63°
2026-05-05 04:54 45.23877 -60.90381 32868 ft 551 kts 63°
2026-05-05 04:54 45.26920 -60.80375 32851 ft 552 kts 64°
2026-05-05 04:55 45.29960 -60.70336 32836 ft 552 kts 64°
2026-05-05 04:55 45.32987 -60.60297 32828 ft 552 kts 64°
2026-05-05 04:56 45.35985 -60.50321 32868 ft 553 kts 64°
2026-05-05 04:56 45.38998 -60.40252 32830 ft 552 kts 64°
2026-05-05 04:57 45.41997 -60.30188 32844 ft 551 kts 64°
2026-05-05 04:57 45.44982 -60.20132 32840 ft 550 kts 65°
2026-05-05 04:58 45.47954 -60.10081 32848 ft 550 kts 65°
2026-05-05 04:58 45.50891 -60.00109 32840 ft 549 kts 65°
2026-05-05 04:59 45.53836 -59.90070 32837 ft 548 kts 65°
2026-05-05 04:59 45.56769 -59.80028 32837 ft 547 kts 65°
2026-05-05 05:00 45.59692 -59.69982 32849 ft 548 kts 66°
2026-05-05 05:00 45.62612 -59.59906 32846 ft 549 kts 66°
2026-05-05 05:01 45.65526 -59.49806 32858 ft 550 kts 66°
2026-05-05 05:01 45.68418 -59.39746 32854 ft 551 kts 66°
2026-05-05 05:02 45.71330 -59.29571 32851 ft 552 kts 67°
2026-05-05 05:02 45.74232 -59.19387 32853 ft 553 kts 67°
2026-05-05 05:03 45.77127 -59.09187 32836 ft 552 kts 67°
2026-05-05 05:03 45.80014 -58.98975 32844 ft 552 kts 67°
2026-05-05 05:04 45.82876 -58.88810 32853 ft 553 kts 68°
2026-05-05 05:04 45.85750 -58.78555 32844 ft 553 kts 68°
2026-05-05 05:05 45.88611 -58.68305 32840 ft 553 kts 68°
2026-05-05 05:05 45.91449 -58.58095 32852 ft 553 kts 68°
2026-05-05 05:06 45.94293 -58.47818 32839 ft 553 kts 68°
2026-05-05 05:06 45.97122 -58.37554 32814 ft 553 kts 68°
2026-05-05 05:07 45.99943 -58.27273 32842 ft 553 kts 68°
2026-05-05 05:07 46.02762 -58.16957 32857 ft 554 kts 69°
2026-05-05 05:08 46.05559 -58.06677 32835 ft 555 kts 69°
2026-05-05 05:08 46.08368 -57.96303 32837 ft 555 kts 69°
2026-05-05 05:09 46.11168 -57.85922 32832 ft 555 kts 69°
2026-05-05 05:09 46.13947 -57.75574 32843 ft 556 kts 69°
2026-05-05 05:10 46.16729 -57.65168 32822 ft 555 kts 70°
2026-05-05 05:10 46.19498 -57.54768 32837 ft 556 kts 70°
2026-05-05 05:11 46.22263 -57.44332 32828 ft 556 kts 70°
2026-05-05 05:11 46.25029 -57.33849 32828 ft 557 kts 70°
2026-05-05 05:12 46.27763 -57.23439 32833 ft 557 kts 70°
2026-05-05 05:12 46.30505 -57.12950 32833 ft 557 kts 70°
2026-05-05 05:13 46.33229 -57.02488 32834 ft 557 kts 70°
2026-05-05 05:13 46.35971 -56.91904 32824 ft 557 kts 70°
2026-05-05 05:14 46.38667 -56.81455 32837 ft 558 kts 71°
2026-05-05 05:14 46.41375 -56.70908 32832 ft 558 kts 71°
2026-05-05 05:15 46.44072 -56.60355 32839 ft 559 kts 71°
2026-05-05 05:15 46.46764 -56.49777 32846 ft 559 kts 71°
2026-05-05 05:16 46.49447 -56.39180 32835 ft 559 kts 71°
2026-05-05 05:16 46.52102 -56.28650 32832 ft 559 kts 71°
2026-05-05 05:17 46.54767 -56.18028 32797 ft 558 kts 71°
2026-05-05 05:17 46.57415 -56.07426 32801 ft 559 kts 72°
2026-05-05 05:18 46.60063 -55.96771 32805 ft 561 kts 72°
2026-05-05 05:18 46.62711 -55.86070 32813 ft 562 kts 72°
2026-05-05 05:19 46.65350 -55.75350 32827 ft 563 kts 72°
2026-05-05 05:19 46.67972 -55.64651 32836 ft 564 kts 72°
2026-05-05 05:20 46.70600 -55.53880 32834 ft 564 kts 72°
2026-05-05 05:20 46.73203 -55.43155 32830 ft 563 kts 72°
2026-05-05 05:21 46.75806 -55.32377 32836 ft 563 kts 72°
2026-05-05 05:21 46.78399 -55.21589 32836 ft 563 kts 72°
2026-05-05 05:22 46.80986 -55.10775 32830 ft 563 kts 72°
2026-05-05 05:22 46.83561 -54.99960 32830 ft 563 kts 72°
2026-05-05 05:23 46.86107 -54.89210 32838 ft 563 kts 73°
2026-05-05 05:23 46.88663 -54.78365 32820 ft 563 kts 73°
2026-05-05 05:24 46.91203 -54.67535 32826 ft 563 kts 73°
2026-05-05 05:24 46.93722 -54.56744 32819 ft 563 kts 73°
2026-05-05 05:25 46.96238 -54.45908 32832 ft 563 kts 73°
2026-05-05 05:25 46.98748 -54.35043 32817 ft 562 kts 73°
2026-05-05 05:26 47.01245 -54.24181 32810 ft 562 kts 73°
2026-05-05 05:26 47.03731 -54.13316 32813 ft 561 kts 73°
2026-05-05 05:27 47.06187 -54.02523 32797 ft 561 kts 73°
2026-05-05 05:27 47.09867 -53.86250 32805 ft 559 kts 73°
2026-05-05 05:28 47.12303 -53.75408 32804 ft 559 kts 74°
2026-05-05 05:28 47.14734 -53.64532 32818 ft 560 kts 74°
2026-05-05 05:29 47.17141 -53.53711 32817 ft 560 kts 74°
2026-05-05 05:29 47.19552 -53.42815 32804 ft 560 kts 74°
2026-05-05 05:30 47.21947 -53.31932 32818 ft 559 kts 74°
2026-05-05 05:30 47.24333 -53.21037 32776 ft 558 kts 74°
2026-05-05 05:31 47.26702 -53.10160 32819 ft 558 kts 75°
2026-05-05 05:31 47.29063 -52.99261 32818 ft 559 kts 75°
2026-05-05 05:32 47.31403 -52.88402 32807 ft 560 kts 75°
2026-05-05 05:32 47.33755 -52.77434 32819 ft 560 kts 75°
2026-05-05 05:33 47.36097 -52.66454 32816 ft 561 kts 75°
2026-05-05 05:33 47.38428 -52.55463 32809 ft 561 kts 75°
2026-05-05 05:34 47.40741 -52.44501 32814 ft 561 kts 75°
2026-05-05 05:34 47.43051 -52.33489 32839 ft 562 kts 75°
2026-05-05 05:35 47.45359 -52.22431 32846 ft 563 kts 76°
2026-05-05 05:35 47.47647 -52.11403 32871 ft 564 kts 76°
2026-05-05 05:36 47.49951 -52.00298 32873 ft 565 kts 75°
2026-05-05 05:36 47.52671 -51.89365 32865 ft 567 kts 71°
2026-05-05 05:37 47.55082 -51.80258 32896 ft 567 kts 71°
2026-05-05 05:37 47.57944 -51.69376 32885 ft 567 kts 71°
2026-05-05 05:38 47.60742 -51.58542 32852 ft 566 kts 71°
2026-05-05 05:38 47.63531 -51.47621 32896 ft 567 kts 71°
2026-05-05 05:39 47.66316 -51.36668 32897 ft 568 kts 72°
2026-05-05 05:39 47.69100 -51.25676 32896 ft 568 kts 72°
2026-05-05 05:40 47.71874 -51.14680 32892 ft 569 kts 72°
2026-05-05 05:40 47.74629 -51.03708 32905 ft 569 kts 72°
2026-05-05 05:41 47.77384 -50.92677 32902 ft 569 kts 72°
2026-05-05 05:41 47.80127 -50.81639 32889 ft 569 kts 72°
2026-05-05 05:42 47.82859 -50.70595 32879 ft 568 kts 72°
2026-05-05 05:42 47.85583 -50.59526 32911 ft 568 kts 72°
2026-05-05 05:43 47.88293 -50.48459 32915 ft 569 kts 72°
2026-05-05 05:43 47.90980 -50.37431 32923 ft 570 kts 72°
2026-05-05 05:44 47.93692 -50.26246 32922 ft 570 kts 72°
2026-05-05 05:44 47.96364 -50.15167 32930 ft 570 kts 72°
2026-05-05 05:45 47.99043 -50.04011 32914 ft 570 kts 72°
2026-05-05 05:45 48.01743 -49.92884 32922 ft 569 kts 72°
2026-05-05 05:46 48.04538 -49.81819 32875 ft 568 kts 71°
2026-05-05 05:46 48.07312 -49.70858 32920 ft 567 kts 71°
2026-05-05 05:47 48.10077 -49.59802 32938 ft 567 kts 71°
2026-05-05 05:47 48.12818 -49.48730 32938 ft 568 kts 72°
2026-05-05 05:48 48.15549 -49.37632 32931 ft 568 kts 71°
2026-05-05 05:48 48.18276 -49.26506 32931 ft 568 kts 71°
2026-05-05 05:49 48.20987 -49.15396 32946 ft 567 kts 72°
2026-05-05 05:49 48.23683 -49.04291 32943 ft 566 kts 72°
2026-05-05 05:50 48.26349 -48.93254 32946 ft 565 kts 72°
2026-05-05 05:50 48.29018 -48.82147 32913 ft 565 kts 72°
2026-05-05 05:51 48.31680 -48.71012 32955 ft 566 kts 72°
2026-05-05 05:51 48.34337 -48.59842 32965 ft 569 kts 72°
2026-05-05 05:52 48.36996 -48.48605 32973 ft 570 kts 72°
2026-05-05 05:52 48.39627 -48.37433 32968 ft 570 kts 72°
2026-05-05 05:53 48.42268 -48.26158 32976 ft 570 kts 72°
2026-05-05 05:53 48.44896 -48.14880 32965 ft 569 kts 72°
2026-05-05 05:54 48.47491 -48.03690 32977 ft 560 kts 72°
2026-05-05 05:54 48.50040 -47.92641 32991 ft 557 kts 72°
2026-05-05 05:55 48.52561 -47.81644 32942 ft 559 kts 72°
2026-05-05 05:55 48.55107 -47.70484 32981 ft 563 kts 72°
2026-05-05 05:56 48.57653 -47.59269 32990 ft 564 kts 72°
2026-05-05 05:56 48.60168 -47.48137 32986 ft 564 kts 72°
2026-05-05 05:57 48.62694 -47.36896 32990 ft 563 kts 73°
2026-05-05 05:57 48.65197 -47.25692 32994 ft 561 kts 73°
2026-05-05 05:58 48.67672 -47.14559 32995 ft 556 kts 73°
2026-05-05 05:58 48.70120 -47.03487 32992 ft 552 kts 73°
2026-05-05 05:59 48.72528 -46.92540 32994 ft 550 kts 73°
2026-05-05 05:59 48.74932 -46.81550 32982 ft 548 kts 73°
2026-05-05 06:00 48.77319 -46.70575 33028 ft 548 kts 73°
2026-05-05 06:00 48.79704 -46.59553 33029 ft 551 kts 74°
2026-05-05 06:01 48.82090 -46.48472 33016 ft 553 kts 74°
2026-05-05 06:01 48.84456 -46.37421 33029 ft 555 kts 74°
2026-05-05 06:02 48.86837 -46.26243 33004 ft 555 kts 74°
2026-05-05 06:02 48.89201 -46.15085 33007 ft 554 kts 74°
2026-05-05 06:03 48.91551 -46.03929 33008 ft 553 kts 74°
2026-05-05 06:03 48.93880 -45.92811 33027 ft 551 kts 75°
2026-05-05 06:04 48.96182 -45.81759 33013 ft 550 kts 75°
2026-05-05 06:04 48.98478 -45.70680 33020 ft 548 kts 75°
2026-05-05 06:05 49.00759 -45.59607 33027 ft 548 kts 75°
2026-05-05 06:05 49.03028 -45.48532 33046 ft 547 kts 75°
2026-05-05 06:06 49.05284 -45.37459 33020 ft 546 kts 75°
2026-05-05 06:06 49.07526 -45.26393 33026 ft 545 kts 75°
2026-05-05 06:07 49.09742 -45.15390 33047 ft 545 kts 76°
2026-05-05 06:07 49.11959 -45.04324 33054 ft 544 kts 76°
2026-05-05 06:08 49.14160 -44.93275 33032 ft 543 kts 76°
2026-05-05 06:08 49.16344 -44.82250 33032 ft 542 kts 76°
2026-05-05 06:09 49.18514 -44.71228 33025 ft 541 kts 76°
2026-05-05 06:09 49.20677 -44.60180 33050 ft 543 kts 76°
2026-05-05 06:10 49.22830 -44.49121 33056 ft 546 kts 76°
2026-05-05 06:10 49.24993 -44.37947 33055 ft 548 kts 76°
2026-05-05 06:11 49.27153 -44.26721 33054 ft 550 kts 76°
2026-05-05 06:11 49.29308 -44.15459 33050 ft 550 kts 77°
2026-05-05 06:12 49.31445 -44.04230 33053 ft 548 kts 77°
2026-05-05 06:12 49.33561 -43.93035 33054 ft 545 kts 77°
2026-05-05 06:13 49.35646 -43.81941 33058 ft 543 kts 77°
2026-05-05 06:13 49.37725 -43.70811 33002 ft 541 kts 77°
2026-05-05 06:14 49.39784 -43.59719 33069 ft 540 kts 77°
2026-05-05 06:14 49.41836 -43.48591 33071 ft 541 kts 77°
2026-05-05 06:15 49.43869 -43.37506 33075 ft 543 kts 77°
2026-05-05 06:15 49.45908 -43.26324 33061 ft 544 kts 78°
2026-05-05 06:16 49.47941 -43.15111 33071 ft 544 kts 78°
2026-05-05 06:16 49.49962 -43.03892 33077 ft 543 kts 78°
2026-05-05 06:17 49.51956 -42.92749 33081 ft 542 kts 78°
2026-05-05 06:17 49.53947 -42.81559 33069 ft 541 kts 79°
2026-05-05 06:18 49.55920 -42.70402 33074 ft 538 kts 79°
2026-05-05 06:18 49.57879 -42.59256 33058 ft 536 kts 79°
2026-05-05 06:19 49.59814 -42.48169 33082 ft 536 kts 79°
2026-05-05 06:19 49.61728 -42.37126 33062 ft 536 kts 79°
2026-05-05 06:20 49.63647 -42.25999 33080 ft 536 kts 80°
2026-05-05 06:20 49.65552 -42.14877 33089 ft 536 kts 80°
2026-05-05 06:21 49.67446 -42.03746 33086 ft 536 kts 80°
2026-05-05 06:21 49.69328 -41.92620 33087 ft 535 kts 80°
2026-05-05 06:22 49.71197 -41.81504 33079 ft 534 kts 81°
2026-05-05 06:22 49.72738 -41.72279 33093 ft 532 kts 81°
2026-05-05 06:23 49.74874 -41.59408 33071 ft 531 kts 81°
2026-05-05 06:23 49.76403 -41.50134 33050 ft 530 kts 81°
2026-05-05 06:24 49.78217 -41.39066 33083 ft 530 kts 81°
2026-05-05 06:24 49.80009 -41.28056 33086 ft 531 kts 81°
2026-05-05 06:25 49.81803 -41.16963 33086 ft 531 kts 82°
2026-05-05 06:25 49.83586 -41.05864 33081 ft 531 kts 82°
2026-05-05 06:26 49.85360 -40.94753 33061 ft 530 kts 82°
2026-05-05 06:26 49.87121 -40.83657 33075 ft 527 kts 82°
2026-05-05 06:27 49.89707 -40.67202 33079 ft 524 kts 82°
2026-05-05 06:28 49.91424 -40.56184 33081 ft 523 kts 82°
2026-05-05 06:28 49.93122 -40.45215 33026 ft 521 kts 82°
2026-05-05 06:29 49.94789 -40.34379 33081 ft 519 kts 82°
2026-05-05 06:29 49.96454 -40.23472 33081 ft 519 kts 82°
2026-05-05 06:30 49.98111 -40.12547 33074 ft 519 kts 82°
2026-05-05 06:30 49.99778 -40.01611 33079 ft 521 kts 80°
2026-05-05 06:31 50.02167 -39.90900 33080 ft 527 kts 73°
2026-05-05 06:31 50.04896 -39.80303 33078 ft 528 kts 72°
2026-05-05 06:32 50.07610 -39.69676 33075 ft 528 kts 73°
2026-05-05 06:32 50.10270 -39.59051 33717 ft 523 kts 73°
2026-05-05 06:32 50.11575 -39.53803 34344 ft 516 kts 73°
2026-05-05 06:33 50.12865 -39.48589 34630 ft 515 kts 73°
2026-05-05 06:33 50.14153 -39.43359 34805 ft 518 kts 73°
2026-05-05 06:33 50.15441 -39.38110 34943 ft 519 kts 73°
2026-05-05 06:34 50.18039 -39.27501 35059 ft 523 kts 73°
2026-05-05 06:34 50.20613 -39.16966 35034 ft 520 kts 73°
2026-05-05 06:35 50.23169 -39.06465 35062 ft 515 kts 73°
2026-05-05 06:35 50.25701 -38.96002 35065 ft 512 kts 73°
2026-05-05 06:36 50.28205 -38.85595 35069 ft 512 kts 73°
2026-05-05 06:36 50.30708 -38.75133 35060 ft 520 kts 74°
2026-05-05 06:37 50.33244 -38.64493 35075 ft 521 kts 74°
2026-05-05 06:37 50.35774 -38.53843 35083 ft 521 kts 74°
2026-05-05 06:38 50.38287 -38.43205 35091 ft 520 kts 74°
2026-05-05 06:38 50.40773 -38.32625 35075 ft 519 kts 74°
2026-05-05 06:39 50.43257 -38.22002 35093 ft 517 kts 74°
2026-05-05 06:39 50.45719 -38.11422 35093 ft 515 kts 74°
2026-05-05 06:40 50.48163 -38.00865 35107 ft 513 kts 74°
2026-05-05 06:40 50.50588 -37.90337 35089 ft 512 kts 74°
2026-05-05 06:41 50.52997 -37.79827 35118 ft 510 kts 74°
2026-05-05 06:41 50.55377 -37.69392 35128 ft 509 kts 74°
2026-05-05 06:42 50.57758 -37.58901 35136 ft 509 kts 74°
2026-05-05 06:42 50.60132 -37.48387 35115 ft 509 kts 74°
2026-05-05 06:43 50.62490 -37.37894 35141 ft 508 kts 74°
2026-05-05 06:43 50.64821 -37.27470 35148 ft 507 kts 74°
2026-05-05 06:44 50.67154 -37.16983 35164 ft 506 kts 74°
2026-05-05 06:44 50.69475 -37.06497 35159 ft 506 kts 74°
2026-05-05 06:45 50.71783 -36.96018 35160 ft 505 kts 73°
2026-05-05 06:45 50.74081 -36.85529 35183 ft 505 kts 73°
2026-05-05 06:46 50.76370 -36.75033 35191 ft 505 kts 73°
2026-05-05 06:46 50.78641 -36.64565 35201 ft 506 kts 73°
2026-05-05 06:47 50.80916 -36.54021 35180 ft 507 kts 73°
2026-05-05 06:47 50.83185 -36.43453 35208 ft 508 kts 73°
2026-05-05 06:48 50.85452 -36.32839 35215 ft 509 kts 73°
2026-05-05 06:48 50.87698 -36.22268 35205 ft 510 kts 73°
2026-05-05 06:49 50.89950 -36.11613 35206 ft 511 kts 73°
2026-05-05 06:49 50.92198 -36.00921 35223 ft 511 kts 73°
2026-05-05 06:50 50.94440 -35.90204 35236 ft 512 kts 73°
2026-05-05 06:50 50.96674 -35.79465 35221 ft 512 kts 73°
2026-05-05 06:51 50.98897 -35.68719 35225 ft 512 kts 73°
2026-05-05 06:51 51.01098 -35.58024 35249 ft 512 kts 73°
2026-05-05 06:52 51.03303 -35.47253 35234 ft 512 kts 73°
2026-05-05 06:52 51.05493 -35.36493 35244 ft 512 kts 73°
2026-05-05 06:53 51.07671 -35.25732 35254 ft 511 kts 72°
2026-05-05 06:53 51.09841 -35.14956 35253 ft 510 kts 72°
2026-05-05 06:54 51.11996 -35.04195 35247 ft 510 kts 72°
2026-05-05 06:54 51.14137 -34.93446 35253 ft 510 kts 72°
2026-05-05 06:55 51.16263 -34.82711 35266 ft 510 kts 72°
2026-05-05 06:55 51.18388 -34.71917 35272 ft 511 kts 72°
2026-05-05 06:56 51.20511 -34.61082 35257 ft 512 kts 72°
2026-05-05 06:56 51.22627 -34.50213 35280 ft 512 kts 72°
2026-05-05 06:57 51.24719 -34.39413 35280 ft 513 kts 72°
2026-05-05 06:57 51.26814 -34.28528 35275 ft 512 kts 71°
2026-05-05 06:58 51.28896 -34.17650 35280 ft 511 kts 71°
2026-05-05 06:58 51.30969 -34.06762 35278 ft 510 kts 72°
2026-05-05 06:59 51.33021 -33.95915 35290 ft 510 kts 72°
2026-05-05 06:59 51.35062 -33.85067 35294 ft 509 kts 71°
2026-05-05 07:00 51.37078 -33.74289 35294 ft 508 kts 71°
2026-05-05 07:00 51.39097 -33.63433 35301 ft 508 kts 71°
2026-05-05 07:01 51.41106 -33.52569 35297 ft 508 kts 71°
2026-05-05 07:01 51.43104 -33.41697 35300 ft 508 kts 70°
2026-05-05 07:02 51.45080 -33.30883 35303 ft 509 kts 71°
2026-05-05 07:02 51.47068 -33.19941 35307 ft 510 kts 71°
2026-05-05 07:03 51.49045 -33.08991 35306 ft 511 kts 71°
2026-05-05 07:03 51.51011 -32.98035 35318 ft 511 kts 70°
2026-05-05 07:04 51.52961 -32.87099 35313 ft 512 kts 70°
2026-05-05 07:04 51.54914 -32.76088 35307 ft 513 kts 70°
2026-05-05 07:05 51.56859 -32.65050 35310 ft 513 kts 70°
2026-05-05 07:05 51.58794 -32.53994 35339 ft 513 kts 70°
2026-05-05 07:06 51.60721 -32.42923 35318 ft 514 kts 69°
2026-05-05 07:06 51.62638 -32.31838 35315 ft 514 kts 70°
2026-05-05 07:07 51.64545 -32.20740 35314 ft 514 kts 70°
2026-05-05 07:07 51.66442 -32.09630 35318 ft 514 kts 70°
2026-05-05 07:08 51.68319 -31.98565 35316 ft 515 kts 69°
2026-05-05 07:08 51.70200 -31.87410 35318 ft 515 kts 69°
2026-05-05 07:09 51.72055 -31.76336 35319 ft 515 kts 69°
2026-05-05 07:09 51.73910 -31.65189 35322 ft 514 kts 69°
2026-05-05 07:10 51.75755 -31.54030 35328 ft 516 kts 69°
2026-05-05 07:10 51.77596 -31.42825 35327 ft 516 kts 69°
2026-05-05 07:11 51.79116 -31.33516 35328 ft 516 kts 69°
2026-05-05 07:11 51.80937 -31.22294 35331 ft 516 kts 69°
2026-05-05 07:12 51.82748 -31.11062 35332 ft 516 kts 69°
2026-05-05 07:12 51.84540 -30.99866 35336 ft 516 kts 69°
2026-05-05 07:13 51.86331 -30.88609 35333 ft 516 kts 69°
2026-05-05 07:13 51.88110 -30.77345 35338 ft 516 kts 69°
2026-05-05 07:14 51.89880 -30.66064 35370 ft 517 kts 69°
2026-05-05 07:14 51.91642 -30.54756 35340 ft 518 kts 69°
2026-05-05 07:15 51.93395 -30.43427 35340 ft 518 kts 69°
2026-05-05 07:15 51.95128 -30.32143 35340 ft 519 kts 70°
2026-05-05 07:16 51.96861 -30.20783 35343 ft 519 kts 70°
2026-05-05 07:16 51.98590 -30.09380 35351 ft 521 kts 70°
2026-05-05 07:17 52.00445 -29.98037 35352 ft 516 kts 64°
2026-05-05 07:17 52.03075 -29.87371 35349 ft 511 kts 60°
2026-05-05 07:18 52.05816 -29.76723 35352 ft 510 kts 60°
2026-05-05 07:18 52.08525 -29.66037 35357 ft 512 kts 61°
2026-05-05 07:19 52.11199 -29.55303 35358 ft 512 kts 61°
2026-05-05 07:19 52.13854 -29.44555 35355 ft 512 kts 61°
2026-05-05 07:20 52.16479 -29.33874 35359 ft 511 kts 61°
2026-05-05 07:20 52.19116 -29.23108 35363 ft 512 kts 62°
2026-05-05 07:21 52.21746 -29.12315 35366 ft 512 kts 62°
2026-05-05 07:21 52.24364 -29.01522 35359 ft 511 kts 62°
2026-05-05 07:22 52.26971 -28.90716 35362 ft 511 kts 62°
2026-05-05 07:22 52.29570 -28.79898 35368 ft 511 kts 63°
2026-05-05 07:23 52.32139 -28.69141 35364 ft 510 kts 63°
2026-05-05 07:23 52.34706 -28.58343 35359 ft 509 kts 64°
2026-05-05 07:24 52.37259 -28.47549 35366 ft 507 kts 64°
2026-05-05 07:24 52.39798 -28.36768 35385 ft 507 kts 64°
2026-05-05 07:25 52.42324 -28.25984 35370 ft 506 kts 64°
2026-05-05 07:25 52.44831 -28.15221 35363 ft 505 kts 64°
2026-05-05 07:26 52.47311 -28.04525 35363 ft 504 kts 65°
2026-05-05 07:26 52.49791 -27.93779 35390 ft 504 kts 65°
2026-05-05 07:27 52.52262 -27.83013 35366 ft 503 kts 65°
2026-05-05 07:27 52.54718 -27.72258 35361 ft 502 kts 65°
2026-05-05 07:28 52.57159 -27.61511 35364 ft 501 kts 65°
2026-05-05 07:28 52.59576 -27.50818 35390 ft 501 kts 66°
2026-05-05 07:29 52.61997 -27.40056 35360 ft 501 kts 66°
2026-05-05 07:29 52.64403 -27.29305 35357 ft 500 kts 66°
2026-05-05 07:30 52.66800 -27.18532 35360 ft 499 kts 66°
2026-05-05 07:30 52.70369 -27.02397 35373 ft 499 kts 66°
2026-05-05 07:31 52.72719 -26.91701 35360 ft 499 kts 66°
2026-05-05 07:31 52.75078 -26.80909 35352 ft 499 kts 66°
2026-05-05 07:32 52.77427 -26.70108 35355 ft 499 kts 66°
2026-05-05 07:32 52.79761 -26.59318 35351 ft 499 kts 67°
2026-05-05 07:33 52.82085 -26.48518 35352 ft 499 kts 67°
2026-05-05 07:33 52.84388 -26.37757 35353 ft 499 kts 67°
2026-05-05 07:34 52.86694 -26.26926 35353 ft 499 kts 67°
2026-05-05 07:34 52.88992 -26.16075 35353 ft 499 kts 67°
2026-05-05 07:35 52.91268 -26.05270 35344 ft 500 kts 67°
2026-05-05 07:35 52.93548 -25.94386 35344 ft 499 kts 67°
2026-05-05 07:36 52.95815 -25.83507 35347 ft 499 kts 68°
2026-05-05 07:36 52.98073 -25.72611 35344 ft 499 kts 68°
2026-05-05 07:37 53.00324 -25.61688 35356 ft 499 kts 68°
2026-05-05 07:37 53.02560 -25.50778 35343 ft 499 kts 68°
2026-05-05 07:38 53.04787 -25.39854 35339 ft 499 kts 68°
2026-05-05 07:38 53.07000 -25.28938 35339 ft 499 kts 68°
2026-05-05 07:39 53.09193 -25.18060 35355 ft 499 kts 68°
2026-05-05 07:39 53.11391 -25.07098 35342 ft 499 kts 68°
2026-05-05 07:40 53.13577 -24.96133 35337 ft 499 kts 68°
2026-05-05 07:40 53.15752 -24.85160 35338 ft 499 kts 68°
2026-05-05 07:41 53.17921 -24.74159 35341 ft 499 kts 69°
2026-05-05 07:41 53.20068 -24.63203 35341 ft 500 kts 69°
2026-05-05 07:42 53.22219 -24.52168 35329 ft 501 kts 69°
2026-05-05 07:42 53.24378 -24.41027 35341 ft 501 kts 69°
2026-05-05 07:43 53.26504 -24.29992 35336 ft 502 kts 69°
2026-05-05 07:43 53.28640 -24.18837 35332 ft 503 kts 70°
2026-05-05 07:44 53.30765 -24.07678 35335 ft 504 kts 70°
2026-05-05 07:44 53.32871 -23.96547 35329 ft 504 kts 70°
2026-05-05 07:45 53.34979 -23.85347 35325 ft 505 kts 70°
2026-05-05 07:45 53.37076 -23.74136 35325 ft 504 kts 71°
2026-05-05 07:46 53.39162 -23.62913 35317 ft 504 kts 71°
2026-05-05 07:46 53.41237 -23.51687 35319 ft 504 kts 71°
2026-05-05 07:47 53.43301 -23.40451 35318 ft 503 kts 71°
2026-05-05 07:47 53.45338 -23.29291 35323 ft 503 kts 71°
2026-05-05 07:48 53.47382 -23.18028 35318 ft 503 kts 71°
2026-05-05 07:48 53.49408 -23.06789 35315 ft 503 kts 72°
2026-05-05 07:49 53.51425 -22.95536 35315 ft 503 kts 72°
2026-05-05 07:49 53.53431 -22.84279 35310 ft 503 kts 72°
2026-05-05 07:50 53.55427 -22.73005 35314 ft 503 kts 72°
2026-05-05 07:50 53.57401 -22.61782 35306 ft 503 kts 72°
2026-05-05 07:51 53.59376 -22.50478 35304 ft 503 kts 72°
2026-05-05 07:51 53.61337 -22.39189 35304 ft 502 kts 72°
2026-05-05 07:52 53.63290 -22.27875 35308 ft 502 kts 73°
2026-05-05 07:52 53.65231 -22.16558 35303 ft 502 kts 73°
2026-05-05 07:53 53.67162 -22.05226 35299 ft 502 kts 73°
2026-05-05 07:53 53.69071 -21.93954 35293 ft 502 kts 73°
2026-05-05 07:54 53.70981 -21.82598 35294 ft 502 kts 73°
2026-05-05 07:54 53.72878 -21.71248 35291 ft 502 kts 73°
2026-05-05 07:55 53.74767 -21.59866 35294 ft 502 kts 73°
2026-05-05 07:55 53.76643 -21.48490 35294 ft 503 kts 73°
2026-05-05 07:56 53.78508 -21.37107 35299 ft 503 kts 73°
2026-05-05 07:56 53.80365 -21.25695 35290 ft 503 kts 73°
2026-05-05 07:57 53.82201 -21.14341 35289 ft 503 kts 74°
2026-05-05 07:57 53.84036 -21.02907 35288 ft 503 kts 74°
2026-05-05 07:58 53.85555 -20.93392 35283 ft 503 kts 74°
2026-05-05 07:58 53.87370 -20.81944 35286 ft 503 kts 74°
2026-05-05 07:59 53.89178 -20.70463 35279 ft 503 kts 74°
2026-05-05 07:59 53.90971 -20.58994 35281 ft 503 kts 74°
2026-05-05 08:00 53.92758 -20.47491 35278 ft 503 kts 74°
2026-05-05 08:00 53.94520 -20.36064 35278 ft 503 kts 74°
2026-05-05 08:01 53.96285 -20.24532 35272 ft 504 kts 75°
2026-05-05 08:01 53.98040 -20.13000 35269 ft 504 kts 75°
2026-05-05 08:02 53.99697 -20.01405 35258 ft 505 kts 79°
2026-05-05 08:02 54.00324 -19.89521 35261 ft 505 kts 88°
2026-05-05 08:03 54.00490 -19.77639 35271 ft 505 kts 88°
2026-05-05 08:03 54.00662 -19.65671 35265 ft 505 kts 88°
2026-05-05 08:04 54.00858 -19.53718 35266 ft 505 kts 88°
2026-05-05 08:04 54.01055 -19.41847 35258 ft 505 kts 88°
2026-05-05 08:05 54.01242 -19.29895 35261 ft 505 kts 88°
2026-05-05 08:05 54.01416 -19.17973 35255 ft 505 kts 88°
2026-05-05 08:06 54.01577 -19.06039 35253 ft 504 kts 89°
2026-05-05 08:06 54.01725 -18.94116 35237 ft 504 kts 89°
2026-05-05 08:07 54.01861 -18.82246 35251 ft 504 kts 89°
2026-05-05 08:07 54.01986 -18.70324 35263 ft 505 kts 89°
2026-05-05 08:08 54.02100 -18.58380 35247 ft 505 kts 89°
2026-05-05 08:08 54.02201 -18.46440 35247 ft 505 kts 89°
2026-05-05 08:09 54.02291 -18.34471 35246 ft 505 kts 89°
2026-05-05 08:09 54.02369 -18.22535 35244 ft 505 kts 89°
2026-05-05 08:10 54.02435 -18.10589 35242 ft 504 kts 89°
2026-05-05 08:10 54.02489 -17.98731 35237 ft 504 kts 89°
2026-05-05 08:11 54.02532 -17.86813 35239 ft 503 kts 89°
2026-05-05 08:11 54.02562 -17.74896 35236 ft 503 kts 89°
2026-05-05 08:12 54.02581 -17.63002 35244 ft 503 kts 89°
2026-05-05 08:12 54.02588 -17.51117 35239 ft 502 kts 90°
2026-05-05 08:13 54.02584 -17.39238 35235 ft 502 kts 90°
2026-05-05 08:13 54.02567 -17.27350 35236 ft 502 kts 90°
2026-05-05 08:14 54.02539 -17.15463 35222 ft 502 kts 90°
2026-05-05 08:14 54.02500 -17.03673 35237 ft 502 kts 90°
2026-05-05 08:15 54.02448 -16.91798 35227 ft 502 kts 90°
2026-05-05 08:15 54.02386 -16.79939 35229 ft 501 kts 90°
2026-05-05 08:16 54.02311 -16.68064 35229 ft 502 kts 90°
2026-05-05 08:16 54.02225 -16.56254 35226 ft 502 kts 90°
2026-05-05 08:17 54.02127 -16.44390 35226 ft 502 kts 90°
2026-05-05 08:17 54.02017 -16.32520 35223 ft 502 kts 90°
2026-05-05 08:18 54.01896 -16.20641 35225 ft 502 kts 90°
2026-05-05 08:18 54.01763 -16.08763 35222 ft 502 kts 90°
2026-05-05 08:19 54.01618 -15.96886 35231 ft 502 kts 90°
2026-05-05 08:19 54.01462 -15.85086 35225 ft 502 kts 91°
2026-05-05 08:20 54.01293 -15.73143 35216 ft 502 kts 91°
2026-05-05 08:20 54.01114 -15.61341 35215 ft 502 kts 91°
2026-05-05 08:21 54.00923 -15.49472 35216 ft 502 kts 91°
2026-05-05 08:21 54.00719 -15.37605 35219 ft 502 kts 91°
2026-05-05 08:22 54.00505 -15.25752 35212 ft 502 kts 91°
2026-05-05 08:22 54.00279 -15.13883 35212 ft 502 kts 91°
2026-05-05 08:23 54.00043 -15.02032 35213 ft 502 kts 91°
2026-05-05 08:23 53.99933 -14.90243 35212 ft 501 kts 89°
2026-05-05 08:24 54.00022 -14.78317 35213 ft 501 kts 88°
2026-05-05 08:24 54.00089 -14.66538 35202 ft 501 kts 88°
2026-05-05 08:25 54.00107 -14.54690 35206 ft 501 kts 89°
2026-05-05 08:25 54.00102 -14.42835 35201 ft 501 kts 89°
2026-05-05 08:26 54.00087 -14.30984 35209 ft 501 kts 89°
2026-05-05 08:26 54.00063 -14.19134 35204 ft 501 kts 89°
2026-05-05 08:27 54.00029 -14.07286 35201 ft 501 kts 89°
2026-05-05 08:27 53.99620 -13.95540 35189 ft 502 kts 98°
2026-05-05 08:28 53.98330 -13.83884 35198 ft 502 kts 100°
2026-05-05 08:28 53.96992 -13.72237 35200 ft 502 kts 100°
2026-05-05 08:29 53.95678 -13.60606 35193 ft 501 kts 100°
2026-05-05 08:30 53.93724 -13.43156 35189 ft 501 kts 100°
2026-05-05 08:30 53.92413 -13.31546 35191 ft 501 kts 100°
2026-05-05 08:31 53.91095 -13.19998 35195 ft 501 kts 100°
2026-05-05 08:31 53.89760 -13.08410 35184 ft 500 kts 101°
2026-05-05 08:32 53.88414 -12.96842 35184 ft 500 kts 101°
2026-05-05 08:32 53.87060 -12.85305 35182 ft 499 kts 101°
2026-05-05 08:33 53.85694 -12.73772 35179 ft 498 kts 101°
2026-05-05 08:33 53.84321 -12.62272 35183 ft 498 kts 101°
2026-05-05 08:34 53.82936 -12.50774 35173 ft 497 kts 101°
2026-05-05 08:34 53.81542 -12.39297 35172 ft 497 kts 101°
2026-05-05 08:35 53.80145 -12.27902 35170 ft 497 kts 102°
2026-05-05 08:35 53.78732 -12.16462 35168 ft 497 kts 102°
2026-05-05 08:36 53.77306 -12.05019 35177 ft 497 kts 101°
2026-05-05 08:36 53.75873 -11.93610 35167 ft 497 kts 102°
2026-05-05 08:37 53.74430 -11.82216 35163 ft 497 kts 102°
2026-05-05 08:37 53.72970 -11.70782 35158 ft 497 kts 102°
2026-05-05 08:38 53.71510 -11.59449 35158 ft 497 kts 102°
2026-05-05 08:38 53.70030 -11.48040 35157 ft 497 kts 102°
2026-05-05 08:39 53.68538 -11.36637 35154 ft 498 kts 102°
2026-05-05 08:39 53.67036 -11.25249 35153 ft 498 kts 102°
2026-05-05 08:40 53.65520 -11.13837 35154 ft 498 kts 102°
2026-05-05 08:40 53.63995 -11.02457 35148 ft 498 kts 102°
2026-05-05 08:41 53.62460 -10.91079 35143 ft 498 kts 102°
2026-05-05 08:41 53.60914 -10.79720 35144 ft 498 kts 102°
2026-05-05 08:42 53.59358 -10.68372 35141 ft 498 kts 102°
2026-05-05 08:42 53.57797 -10.57071 35142 ft 498 kts 102°
2026-05-05 08:43 53.56220 -10.45734 35140 ft 498 kts 102°
2026-05-05 08:43 53.54630 -10.34397 35138 ft 498 kts 103°
2026-05-05 08:44 53.53300 -10.24979 35139 ft 497 kts 103°
2026-05-05 08:44 53.51428 -10.11820 35136 ft 497 kts 103°
2026-05-05 08:45 53.49806 -10.00507 35135 ft 497 kts 103°
2026-05-05 08:45 53.48451 -9.91115 35132 ft 497 kts 103°
2026-05-05 08:46 53.46545 -9.78006 35139 ft 497 kts 103°
2026-05-05 08:46 53.45161 -9.68559 35122 ft 497 kts 103°
2026-05-05 08:47 53.43510 -9.57361 35124 ft 497 kts 103°
2026-05-05 08:47 53.41840 -9.46115 35123 ft 497 kts 103°
2026-05-05 08:48 53.40158 -9.34866 35119 ft 497 kts 104°
2026-05-05 08:48 53.38465 -9.23620 35123 ft 497 kts 104°
2026-05-05 08:49 53.36776 -9.12482 35119 ft 496 kts 104°
2026-05-05 08:49 53.35066 -9.01279 35121 ft 496 kts 104°
2026-05-05 08:50 53.33345 -8.90091 35117 ft 496 kts 104°
2026-05-05 08:50 53.31617 -8.78928 35117 ft 496 kts 104°
2026-05-05 08:51 53.29876 -8.67757 35118 ft 496 kts 105°
2026-05-05 08:51 53.28135 -8.56664 35111 ft 496 kts 105°
2026-05-05 08:52 53.26373 -8.45512 35115 ft 497 kts 105°
2026-05-05 08:52 53.24598 -8.34349 35108 ft 497 kts 105°
2026-05-05 08:53 53.22812 -8.23200 35110 ft 497 kts 105°
2026-05-05 08:53 53.21016 -8.12054 35106 ft 497 kts 105°
2026-05-05 08:54 53.19208 -8.00910 35101 ft 497 kts 105°
2026-05-05 08:54 53.17400 -7.89843 35101 ft 498 kts 105°
2026-05-05 08:55 53.15570 -7.78709 35101 ft 498 kts 106°
2026-05-05 08:55 53.13730 -7.67593 35098 ft 498 kts 106°
2026-05-05 08:56 53.11880 -7.56480 35100 ft 498 kts 106°
2026-05-05 08:56 53.10017 -7.45365 35095 ft 497 kts 106°
2026-05-05 08:57 53.08160 -7.34355 35095 ft 497 kts 106°
2026-05-05 08:57 53.06281 -7.23291 35093 ft 497 kts 106°
2026-05-05 08:58 53.04394 -7.12240 35086 ft 496 kts 107°
2026-05-05 08:58 53.02497 -7.01208 35093 ft 495 kts 106°
2026-05-05 08:59 53.00611 -6.90308 35086 ft 493 kts 106°
2026-05-05 08:59 52.98707 -6.79369 35089 ft 492 kts 106°
2026-05-05 09:00 52.96798 -6.68463 35082 ft 491 kts 107°
2026-05-05 09:00 52.94883 -6.57596 35090 ft 491 kts 107°
2026-05-05 09:01 52.92958 -6.46735 35081 ft 491 kts 107°
2026-05-05 09:01 52.91022 -6.35880 35080 ft 491 kts 107°
2026-05-05 09:02 52.89091 -6.25113 35075 ft 491 kts 107°
2026-05-05 09:02 52.87134 -6.14271 35076 ft 491 kts 107°
2026-05-05 09:03 52.85167 -6.03436 35076 ft 491 kts 107°
2026-05-05 09:03 52.83192 -5.92619 35074 ft 491 kts 107°
2026-05-05 09:04 52.81208 -5.81816 35074 ft 490 kts 107°
2026-05-05 09:04 52.79218 -5.71037 35077 ft 490 kts 107°
2026-05-05 09:05 52.77218 -5.60263 35068 ft 490 kts 107°
2026-05-05 09:05 52.75114 -5.49583 35077 ft 489 kts 111°
2026-05-05 09:06 52.72149 -5.39562 35068 ft 489 kts 117°
2026-05-05 09:06 52.68974 -5.29624 35082 ft 489 kts 117°
2026-05-05 09:07 52.65818 -5.19681 35071 ft 489 kts 117°
2026-05-05 09:07 52.62674 -5.09726 35075 ft 489 kts 117°
2026-05-05 09:08 52.59539 -4.99806 35073 ft 488 kts 117°
2026-05-05 09:08 52.56426 -4.89997 35066 ft 485 kts 117°
2026-05-05 09:09 52.53296 -4.80178 35063 ft 483 kts 117°
2026-05-05 09:09 52.50177 -4.70434 35068 ft 482 kts 117°
2026-05-05 09:10 52.47049 -4.60703 35065 ft 481 kts 117°
2026-05-05 09:10 52.43927 -4.51029 35063 ft 481 kts 117°
2026-05-05 09:11 52.40814 -4.41419 35071 ft 480 kts 117°
2026-05-05 09:11 52.37679 -4.31778 35059 ft 478 kts 117°
2026-05-05 09:12 52.34547 -4.22187 35057 ft 477 kts 117°
2026-05-05 09:12 52.31417 -4.12635 35057 ft 476 kts 117°
2026-05-05 09:13 52.28288 -4.03127 35059 ft 475 kts 117°
2026-05-05 09:13 52.25150 -3.93627 35061 ft 475 kts 117°
2026-05-05 09:14 52.22019 -3.84184 35052 ft 475 kts 117°
2026-05-05 09:14 52.18872 -3.74730 35050 ft 474 kts 117°
2026-05-05 09:15 52.15721 -3.65299 35049 ft 473 kts 117°
2026-05-05 09:15 52.12565 -3.55887 35037 ft 473 kts 117°
2026-05-05 09:16 52.09423 -3.46556 35041 ft 472 kts 117°
2026-05-05 09:16 52.06261 -3.37197 35047 ft 472 kts 118°
2026-05-05 09:17 52.03090 -3.27850 35031 ft 471 kts 118°
2026-05-05 09:17 51.99916 -3.18529 35031 ft 471 kts 118°
2026-05-05 09:18 51.96758 -3.09285 35023 ft 471 kts 118°
2026-05-05 09:18 51.93570 -2.99991 35014 ft 472 kts 119°
2026-05-05 09:19 51.90361 -2.90671 35006 ft 473 kts 119°
2026-05-05 09:19 51.87146 -2.81365 35007 ft 474 kts 120°
2026-05-05 09:20 51.83910 -2.72036 35036 ft 475 kts 120°
2026-05-05 09:20 51.80666 -2.62719 35026 ft 476 kts 120°
2026-05-05 09:21 51.77434 -2.53469 35039 ft 476 kts 121°
2026-05-05 09:21 51.74172 -2.44166 35035 ft 476 kts 121°
2026-05-05 09:22 51.70905 -2.34886 35037 ft 475 kts 121°
2026-05-05 09:22 51.67638 -2.25637 35040 ft 474 kts 121°
2026-05-05 09:23 51.64375 -2.16435 35036 ft 473 kts 121°
2026-05-05 09:23 51.61101 -2.07235 35027 ft 473 kts 121°
2026-05-05 09:24 51.57825 -1.98063 35016 ft 472 kts 121°
2026-05-05 09:24 51.54566 -1.88971 35004 ft 472 kts 121°
2026-05-05 09:25 51.51281 -1.79833 35009 ft 473 kts 122°
2026-05-05 09:25 51.47981 -1.70689 35002 ft 473 kts 121°
2026-05-05 09:26 51.44964 -1.61287 35007 ft 475 kts 116°
2026-05-05 09:26 51.42190 -1.51676 34989 ft 475 kts 116°
2026-05-05 09:27 51.39384 -1.42073 34978 ft 476 kts 117°
2026-05-05 09:27 51.36563 -1.32520 34986 ft 478 kts 117°
2026-05-05 09:28 51.33666 -1.22933 34987 ft 479 kts 120°
2026-05-05 09:28 51.29995 -1.14059 34980 ft 478 kts 129°
2026-05-05 09:29 51.25915 -1.05613 34997 ft 479 kts 129°
2026-05-05 09:29 51.21898 -0.97116 34994 ft 480 kts 129°
2026-05-05 09:30 51.17873 -0.88626 34983 ft 480 kts 129°
2026-05-05 09:30 51.13855 -0.80182 34995 ft 481 kts 129°
2026-05-05 09:31 51.09798 -0.71684 34993 ft 482 kts 129°
2026-05-05 09:31 51.05740 -0.63192 34979 ft 482 kts 128°
2026-05-05 09:32 51.02109 -0.54203 34972 ft 483 kts 123°
2026-05-05 09:32 50.98606 -0.45057 34967 ft 483 kts 123°
2026-05-05 09:33 50.94851 -0.36320 34962 ft 480 kts 133°
2026-05-05 09:33 50.90314 -0.28570 34966 ft 479 kts 135°
2026-05-05 09:34 50.86515 -0.22187 34968 ft 479 kts 135°
2026-05-05 09:34 50.81967 -0.14480 34969 ft 479 kts 135°
2026-05-05 09:35 50.77435 -0.06764 34963 ft 479 kts 135°
2026-05-05 09:35 50.70634 0.04790 34953 ft 478 kts 135°
2026-05-05 09:36 50.66090 0.12474 34961 ft 478 kts 135°
2026-05-05 09:36 50.61546 0.20133 34958 ft 478 kts 135°
2026-05-05 09:37 50.56989 0.27791 34952 ft 478 kts 135°
2026-05-05 09:37 50.52437 0.35416 34374 ft 488 kts 135°
2026-05-05 09:38 50.50100 0.39322 33696 ft 487 kts 136°
2026-05-05 09:38 50.47776 0.43202 32709 ft 484 kts 135°
2026-05-05 09:38 50.45504 0.46993 31773 ft 471 kts 136°
2026-05-05 09:38 50.43280 0.50699 30884 ft 462 kts 136°
2026-05-05 09:39 50.41074 0.54363 30212 ft 459 kts 135°
2026-05-05 09:39 50.38913 0.57949 29569 ft 454 kts 135°
2026-05-05 09:39 50.36752 0.61530 28900 ft 449 kts 135°
2026-05-05 09:39 50.34557 0.64958 28315 ft 442 kts 139°
2026-05-05 09:40 50.32199 0.67987 27743 ft 436 kts 143°
2026-05-05 09:40 50.29824 0.70905 27169 ft 431 kts 142°
2026-05-05 09:40 50.27485 0.73804 26599 ft 427 kts 142°
2026-05-05 09:40 50.25168 0.76697 26034 ft 424 kts 142°
2026-05-05 09:41 50.22877 0.79569 25485 ft 420 kts 142°
2026-05-05 09:41 50.20608 0.82411 25048 ft 414 kts 142°
2026-05-05 09:41 50.18396 0.85176 24900 ft 401 kts 142°
2026-05-05 09:41 50.16263 0.87831 24720 ft 391 kts 141°
2026-05-05 09:42 50.14169 0.90430 24545 ft 380 kts 141°
2026-05-05 09:42 50.12122 0.92971 24370 ft 370 kts 141°
2026-05-05 09:42 50.10137 0.95430 24234 ft 360 kts 141°
2026-05-05 09:42 50.08200 0.97827 24098 ft 350 kts 141°
2026-05-05 09:43 50.06322 1.00149 23938 ft 341 kts 141°
2026-05-05 09:43 50.04428 1.02331 23624 ft 337 kts 145°
2026-05-05 09:43 50.02467 1.04317 23253 ft 334 kts 147°
2026-05-05 09:43 50.00504 1.06225 22872 ft 331 kts 147°
2026-05-05 09:44 49.98558 1.08107 22506 ft 327 kts 147°
2026-05-05 09:44 49.96638 1.09973 22169 ft 325 kts 147°
2026-05-05 09:44 49.94722 1.11844 21830 ft 326 kts 147°
2026-05-05 09:44 49.92788 1.13741 21492 ft 330 kts 146°
2026-05-05 09:45 49.90849 1.15648 21132 ft 330 kts 146°
2026-05-05 09:45 49.88914 1.17553 20777 ft 328 kts 146°
2026-05-05 09:45 49.87000 1.19440 20429 ft 325 kts 146°
2026-05-05 09:45 49.85102 1.21309 20086 ft 322 kts 146°
2026-05-05 09:46 49.83240 1.23144 19767 ft 321 kts 146°
2026-05-05 09:46 49.81349 1.25006 19423 ft 322 kts 146°
2026-05-05 09:46 49.79458 1.26868 19087 ft 323 kts 146°
2026-05-05 09:46 49.77557 1.28736 18750 ft 323 kts 146°
2026-05-05 09:47 49.75662 1.30597 18392 ft 321 kts 146°
2026-05-05 09:47 49.73783 1.32441 18037 ft 319 kts 146°
2026-05-05 09:47 49.71920 1.34266 17684 ft 315 kts 145°
2026-05-05 09:47 49.70072 1.36077 17308 ft 312 kts 146°
2026-05-05 09:48 49.68240 1.37868 16980 ft 311 kts 146°
2026-05-05 09:48 49.66403 1.39666 16639 ft 313 kts 146°
2026-05-05 09:48 49.64579 1.41448 16323 ft 314 kts 145°
2026-05-05 09:48 49.62733 1.43249 15988 ft 313 kts 144°
2026-05-05 09:49 49.60901 1.45036 15650 ft 310 kts 145°
2026-05-05 09:49 49.59090 1.46798 15305 ft 307 kts 145°
2026-05-05 09:49 49.57289 1.48552 14997 ft 306 kts 144°
2026-05-05 09:49 49.55491 1.50301 14670 ft 305 kts 145°
2026-05-05 09:50 49.53691 1.52050 14361 ft 307 kts 145°
2026-05-05 09:50 49.51883 1.53805 14033 ft 307 kts 145°
2026-05-05 09:50 49.50077 1.55558 13722 ft 305 kts 145°
2026-05-05 09:50 49.48291 1.57287 13354 ft 301 kts 145°
2026-05-05 09:51 49.46526 1.58995 13011 ft 297 kts 144°
2026-05-05 09:51 49.44787 1.60678 12688 ft 294 kts 144°
2026-05-05 09:51 49.43055 1.62352 12377 ft 293 kts 144°
2026-05-05 09:51 49.41349 1.64000 12072 ft 293 kts 144°
2026-05-05 09:52 49.39615 1.65675 11752 ft 295 kts 145°
2026-05-05 09:52 49.37872 1.67358 11443 ft 295 kts 144°
2026-05-05 09:52 49.36135 1.69032 11115 ft 293 kts 144°
2026-05-05 09:52 49.34415 1.70687 10798 ft 290 kts 144°
2026-05-05 09:53 49.32708 1.72327 10500 ft 288 kts 144°
2026-05-05 09:53 49.31023 1.73945 10188 ft 284 kts 144°
2026-05-05 09:53 49.29400 1.75619 9882 ft 276 kts 134°
2026-05-05 09:53 49.28310 1.77932 9671 ft 263 kts 115°
2026-05-05 09:54 49.27456 1.80355 9478 ft 263 kts 116°
2026-05-05 09:54 49.26565 1.82796 9263 ft 262 kts 117°
2026-05-05 09:54 49.25669 1.85235 9060 ft 262 kts 117°
2026-05-05 09:54 49.24772 1.87677 8861 ft 264 kts 117°
2026-05-05 09:55 49.23866 1.90139 8640 ft 265 kts 117°
2026-05-05 09:55 49.22965 1.92585 8419 ft 262 kts 117°
2026-05-05 09:55 49.22079 1.94983 8210 ft 256 kts 117°
2026-05-05 09:55 49.21209 1.97340 8015 ft 253 kts 116°
2026-05-05 09:56 49.20348 1.99672 7831 ft 251 kts 116°
2026-05-05 09:56 49.19484 2.02013 7587 ft 256 kts 116°
2026-05-05 09:56 49.18609 2.04378 7262 ft 261 kts 116°
2026-05-05 09:56 49.17703 2.06820 6934 ft 260 kts 117°
2026-05-05 09:57 49.16817 2.09200 6581 ft 255 kts 117°
2026-05-05 09:57 49.15687 2.11182 6257 ft 254 kts 143°
2026-05-05 09:57 49.14053 2.12249 5961 ft 257 kts 161°
2026-05-05 09:57 49.12334 2.12895 5734 ft 252 kts 161°
2026-05-05 09:58 49.10644 2.13554 5506 ft 248 kts 161°
2026-05-05 09:58 49.08980 2.14206 5337 ft 246 kts 161°
2026-05-05 09:58 49.07313 2.14862 5197 ft 248 kts 160°
2026-05-05 09:58 49.05625 2.15533 5086 ft 254 kts 161°
2026-05-05 09:59 49.03888 2.16219 4909 ft 258 kts 162°
2026-05-05 09:59 49.02266 2.17117 4753 ft 242 kts 141°
2026-05-05 09:59 49.01208 2.18959 4633 ft 226 kts 109°
2026-05-05 09:59 49.00958 2.21229 4434 ft 215 kts 89°
2026-05-05 10:00 49.00954 2.23534 4129 ft 217 kts 86°
2026-05-05 10:00 49.01035 2.25819 3898 ft 216 kts 84°
2026-05-05 10:00 49.01157 2.28133 3571 ft 221 kts 83°
2026-05-05 10:00 49.01283 2.30480 3258 ft 221 kts 84°
2026-05-05 10:01 49.01407 2.32738 2937 ft 204 kts 84°
2026-05-05 10:01 49.01516 2.34774 2725 ft 182 kts 83°
2026-05-05 10:01 49.01613 2.36593 2474 ft 162 kts 82°
2026-05-05 10:01 49.01701 2.38210 2269 ft 145 kts 83°
2026-05-05 10:02 49.01781 2.39686 2068 ft 137 kts 82°
2026-05-05 10:02 49.01860 2.41139 1908 ft 139 kts 82°
2026-05-05 10:02 49.01938 2.42602 1735 ft 140 kts 82°
2026-05-05 10:02 49.02018 2.44080 1516 ft 138 kts 82°
2026-05-05 10:03 49.02097 2.45532 1336 ft 137 kts 83°
2026-05-05 10:03 49.02174 2.46985 1139 ft 139 kts 82°
2026-05-05 10:03 49.02255 2.48476 943 ft 142 kts 82°
2026-05-05 10:03 49.02332 2.49981 735 ft 143 kts 82°
2026-05-05 10:04 49.02410 2.51492 563 ft 142 kts 81°
2026-05-05 10:04 49.02495 2.52968 364 ft 134 kts 81°
2026-05-05 10:04 49.02560 2.54122 359 ft 85 kts 85°
2026-05-05 10:04 49.02602 2.54765 362 ft 50 kts 83°
2026-05-05 10:05 49.02636 2.55274 361 ft 46 kts 86°
2026-05-05 10:05 49.02649 2.55679 366 ft 26 kts 90°
2026-05-05 10:05 49.02567 2.55916 366 ft 26 kts 150°
2026-05-05 10:05 49.02387 2.55959 364 ft 23 kts 174°
2026-05-05 10:06 49.02244 2.55981 361 ft 21 kts 174°
2026-05-05 10:06 49.02106 2.55962 363 ft 21 kts 222°
2026-05-05 10:06 49.02077 2.55753 365 ft 21 kts 265°
2026-05-05 10:06 49.02066 2.55539 364 ft 21 kts 265°
2026-05-05 10:07 49.02055 2.55321 359 ft 21 kts 266°
2026-05-05 10:07 49.02044 2.55136 365 ft 15 kts 264°
2026-05-05 10:07 49.01959 2.55085 363 ft 16 kts 169°
2026-05-05 10:07 49.01866 2.55031 368 ft 16 kts 240°
2026-05-05 10:08 49.01849 2.54867 359 ft 16 kts 265°
2026-05-05 10:08 49.01840 2.54704 361 ft 16 kts 265°
2026-05-05 10:08 49.01831 2.54538 367 ft 16 kts 265°
2026-05-05 10:08 49.01822 2.54372 362 ft 16 kts 265°
2026-05-05 10:09 49.01813 2.54207 364 ft 16 kts 265°
2026-05-05 10:09 49.01805 2.54041 365 ft 16 kts 266°
2026-05-05 10:09 49.01797 2.53875 361 ft 16 kts 266°
2026-05-05 10:09 49.01789 2.53709 365 ft 16 kts 265°
2026-05-05 10:10 49.01780 2.53544 361 ft 16 kts 265°
2026-05-05 10:10 49.01772 2.53378 364 ft 16 kts 265°
2026-05-05 10:10 49.01757 2.53212 366 ft 16 kts 265°
2026-05-05 10:10 49.01749 2.53043 360 ft 16 kts 266°
2026-05-05 10:11 49.01709 2.52893 367 ft 16 kts 224°
2026-05-05 10:11 49.01645 2.52756 366 ft 16 kts 247°
2026-05-05 10:11 49.01575 2.52629 369 ft 16 kts 224°
2026-05-05 10:11 49.01538 2.52472 361 ft 16 kts 265°
2026-05-05 10:12 49.01528 2.52303 366 ft 16 kts 265°
2026-05-05 10:12 49.01520 2.52136 362 ft 16 kts 265°
2026-05-05 10:12 49.01512 2.51966 361 ft 16 kts 266°
2026-05-05 10:12 49.01503 2.51796 365 ft 16 kts 266°
2026-05-05 10:13 49.01495 2.51625 359 ft 16 kts 265°
2026-05-05 10:13 49.01485 2.51453 365 ft 16 kts 265°
2026-05-05 10:13 49.01477 2.51281 359 ft 16 kts 265°
2026-05-05 10:13 49.01466 2.51109 364 ft 16 kts 264°
2026-05-05 10:14 49.01456 2.50937 366 ft 16 kts 265°
2026-05-05 10:14 49.01447 2.50765 360 ft 16 kts 266°
2026-05-05 10:14 49.01439 2.50593 362 ft 16 kts 265°
2026-05-05 10:14 49.01430 2.50421 365 ft 16 kts 265°
2026-05-05 10:15 49.01420 2.50249 360 ft 16 kts 265°
2026-05-05 10:15 49.01411 2.50077 363 ft 16 kts 265°
2026-05-05 10:15 49.01405 2.49980 359 ft 7 kts 258°
2026-05-05 10:15 49.01362 2.49951 365 ft 7 kts 180°
2026-05-05 10:16 49.01318 2.49957 363 ft 4 kts 173°
2026-05-05 10:16 49.01308 2.49959 361 ft 0 kts 174°